Date,TemperatureHighF,TemperatureAvgF,TemperatureLowF,DewpointHighF,DewpointAvgF,DewpointLowF,HumidityHigh,HumidityAvg,HumidityLow,PressureMaxIn,PressureMinIn,WindSpeedMaxMPH,WindSpeedAvgMPH,GustSpeedMaxMPH,PrecipitationSumIn
2013-1-1,48,44,41,48,43,36,98,96,83,29.95,29.82,3,0,0,0.89
2013-1-2,38,38,38,34,34,34,86,86,86,30.03,30.03,0,0,0,0.00
2013-1-3,48,40,28,32,28,23,81,62,44,30.23,30.09,8,2,0,0.00
2013-1-4,49,40,28,29,25,23,81,57,37,30.30,30.19,5,2,0,0.00
2013-1-5,49,44,24,38,30,22,91,59,42,30.24,30.09,5,1,0,0.04
2013-1-6,49,42,36,41,37,30,98,82,64,30.15,29.98,5,1,0,0.05
2013-1-7,51,38,26,34,29,24,90,73,46,30.25,30.13,5,1,0,0.00
2013-1-8,58,43,27,43,36,25,93,78,54,30.24,30.11,4,1,0,0.00
2013-1-9,56,50,46,53,48,43,98,93,87,30.28,30.15,3,0,0,0.08
2013-1-10,62,54,50,57,52,49,98,93,82,30.26,29.95,5,1,0,0.01
2013-1-11,67,63,61,64,62,57,98,94,82,29.97,29.89,9,2,0,0.69
2013-1-12,71,65,63,67,63,60,98,93,81,29.95,29.82,4,1,0,0.06
2013-1-13,67,63,51,64,60,48,98,93,84,29.90,29.77,11,2,0,2.63
2013-1-14,48,43,38,46,42,37,98,97,91,30.11,29.91,6,2,0,2.85
2013-1-15,44,42,39,43,41,38,98,98,98,30.00,29.81,4,1,0,3.20
2013-1-16,51,45,42,48,44,40,98,96,90,29.90,29.76,5,1,0,0.18
2013-1-17,43,40,35,43,36,27,98,86,69,30.17,29.61,14,3,0,0.53
2013-1-18,50,36,27,34,27,6,93,73,17,30.39,30.18,6,2,0,0.00
2013-1-19,55,38,26,36,30,24,98,76,45,30.26,30.03,8,2,0,0.00
2013-1-20,59,44,32,40,34,29,93,68,46,30.04,29.94,6,2,0,0.00
2013-1-21,45,33,28,35,28,22,93,83,39,30.05,29.94,5,1,0,0.00
2013-1-24,29,28,28,12,11,9,50,47,45,30.22,30.17,3,1,0,0.00
2013-1-25,35,33,29,35,25,10,98,74,41,30.19,29.94,6,2,0,0.04
2013-1-26,50,39,30,36,34,30,98,83,54,30.16,30.01,4,1,0,0.00
2013-1-27,50,42,31,38,34,28,92,74,60,30.27,30.16,5,2,0,0.00
2013-1-28,59,50,45,50,42,33,88,72,61,30.20,30.06,7,2,0,0.00
2013-1-29,58,52,44,55,50,42,98,95,85,30.09,29.70,3,0,0,0.00
2013-1-30,66,56,40,65,54,33,98,91,73,29.69,29.39,9,3,0,2.69
2013-1-31,48,40,34,32,26,23,74,57,39,29.96,29.67,11,4,0,0.00
2013-2-1,45,32,22,36,16,4,82,54,23,30.27,29.88,7,2,0,0.00
2013-2-2,38,30,20,33,24,16,93,81,67,30.21,29.92,7,2,0,0.06
2013-2-3,54,40,29,38,30,25,98,72,39,29.99,29.84,7,2,0,0.00
2013-2-4,49,37,25,33,28,22,90,72,48,29.99,29.80,5,1,0,0.00
2013-2-5,63,49,41,46,40,33,93,73,46,29.87,29.76,6,1,0,0.02
2013-2-6,64,47,33,42,37,33,98,72,36,30.05,29.87,5,1,0,0.00
2013-2-7,53,47,41,45,39,35,90,76,57,29.97,29.77,3,0,0,0.01
2013-2-8,57,47,38,50,41,30,98,82,54,30.09,29.74,7,2,0,0.09
2013-2-9,58,43,31,34,31,26,83,63,36,30.18,30.04,7,2,0,0.00
2013-2-10,58,49,40,51,40,29,98,73,34,30.07,29.82,9,3,0,1.02
2013-2-11,59,53,43,55,46,36,98,81,48,29.99,29.83,6,2,0,0.04
2013-2-12,54,46,35,42,36,32,93,72,46,30.02,29.69,6,1,0,0.10
2013-2-13,52,44,41,47,40,34,98,87,68,29.86,29.54,8,2,0,0.22
2013-2-14,58,45,34,40,35,30,88,68,42,29.94,29.83,7,2,0,0.00
2013-2-15,60,45,34,43,36,29,98,73,50,29.93,29.82,7,2,0,0.00
2013-2-16,42,34,25,29,20,9,76,59,36,30.01,29.86,11,3,0,0.00
2013-2-17,49,32,17,20,14,9,77,52,22,30.13,30.00,8,2,0,0.00
2013-2-18,61,43,24,36,27,20,89,58,36,30.14,29.83,11,3,0,0.00
2013-2-19,56,45,36,45,29,8,98,60,19,30.05,29.78,10,3,0,0.78
2013-2-20,44,35,26,20,17,9,79,50,26,30.10,30.01,5,2,0,0.00
2013-2-21,54,40,28,40,25,16,98,59,32,30.05,29.78,5,2,0,1.04
2013-2-22,50,46,40,45,44,40,98,92,81,29.91,29.82,9,2,0,0.32
2013-2-23,56,48,42,49,46,38,98,91,77,29.86,29.66,4,1,0,0.30
2013-2-24,60,45,31,37,32,27,92,64,33,29.91,29.76,7,2,0,0.00
2013-2-25,57,46,34,44,33,26,83,60,44,29.86,29.59,4,1,0,0.00
2013-2-26,51,46,41,47,42,37,98,88,71,29.58,29.33,11,4,0,0.94
2013-2-27,57,45,40,40,35,31,83,68,47,29.72,29.56,10,3,0,0.00
2013-2-28,42,39,37,31,28,26,71,64,57,29.85,29.68,7,2,0,0.00
2013-3-1,45,38,35,32,30,27,86,73,59,29.85,29.80,8,1,0,0.00
2013-3-2,41,36,32,32,28,22,86,73,60,29.90,29.79,6,2,0,0.00
2013-3-3,43,33,25,24,22,19,80,65,40,29.92,29.86,6,2,0,0.00
2013-3-4,55,40,23,33,26,19,85,59,32,30.02,29.78,5,1,0,0.00
2013-3-5,57,45,38,53,41,27,98,85,62,29.81,29.47,10,2,0,1.44
2013-3-6,42,36,33,30,26,23,84,68,60,30.07,29.73,13,4,0,0.00
2013-3-7,49,39,32,34,29,26,83,69,55,30.17,30.05,7,3,0,0.00
2013-3-8,59,42,30,33,28,21,87,61,24,30.21,30.08,7,2,0,0.00
2013-3-9,63,48,34,36,33,28,87,58,37,30.13,29.97,4,1,0,0.00
2013-3-10,71,60,46,44,36,33,71,43,26,29.98,29.78,13,4,0,0.00
2013-3-11,62,60,58,53,50,44,80,71,52,29.81,29.66,10,5,0,0.00
2013-3-14,44,42,41,35,34,32,80,75,63,30.12,30.08,2,0,0,0.00
2013-3-15,75,53,32,47,40,30,98,66,35,30.10,29.74,11,2,0,0.00
2013-3-16,79,67,57,52,47,44,62,50,34,29.75,29.60,12,3,0,0.00
2013-3-17,74,64,55,56,50,46,79,62,42,29.78,29.66,7,2,0,0.00
2013-3-18,61,57,53,58,54,50,98,91,77,29.71,29.55,9,2,0,1.49
2013-3-19,63,51,36,54,31,9,98,54,15,29.96,29.69,6,2,0,0.00
2013-3-20,59,47,36,32,22,6,74,41,15,29.97,29.73,10,2,0,0.00
2013-3-21,49,36,24,30,14,10,77,43,21,29.87,29.72,7,3,0,0.00
2013-3-22,49,39,31,32,24,17,64,53,44,29.88,29.77,4,1,0,0.00
2013-3-23,56,46,39,46,40,33,93,81,66,29.83,29.55,5,1,0,0.20
2013-3-24,59,50,43,54,46,32,98,88,61,29.62,29.21,11,3,0,1.64
2013-3-25,42,37,34,32,26,24,75,64,57,29.91,29.48,18,4,0,0.00
2013-3-26,42,36,32,30,27,25,83,70,59,30.16,29.89,8,3,0,0.00
2013-3-27,56,41,27,30,26,24,88,59,30,30.22,30.10,8,2,0,0.00
2013-3-28,63,45,28,35,29,24,86,57,32,30.22,30.04,7,2,0,0.00
2013-3-29,55,44,33,42,36,30,90,75,48,30.18,30.05,5,1,0,0.00
2013-3-30,65,52,44,54,47,42,98,85,54,30.06,29.81,5,1,0,0.38
2013-3-31,68,59,54,61,56,53,98,92,69,29.81,29.67,7,2,0,0.39
2013-4-1,71,57,40,54,45,37,98,70,37,29.88,29.71,6,2,0,0.01
2013-4-2,61,49,38,38,29,24,67,47,25,30.07,29.89,6,3,0,0.00
2013-4-3,59,51,41,30,27,23,52,40,27,30.06,29.96,6,2,0,0.00
2013-4-4,51,44,41,45,42,28,98,92,41,29.97,29.78,3,1,0,1.99
2013-4-5,70,53,43,49,42,36,98,72,28,29.91,29.79,6,2,0,0.07
2013-4-6,74,58,38,46,41,37,98,60,31,30.01,29.85,6,2,0,0.00
2013-4-7,76,62,49,51,46,40,78,58,35,30.00,29.83,8,2,0,0.00
2013-4-8,78,65,50,59,53,48,91,68,47,29.92,29.81,8,2,0,0.00
2013-4-9,83,67,51,62,56,49,98,71,46,30.01,29.82,6,1,0,0.00
2013-4-10,86,70,54,63,58,52,98,68,40,29.93,29.67,6,1,0,0.00
2013-4-11,80,69,62,66,60,57,98,75,56,29.70,29.39,8,2,0,1.51
2013-4-12,70,59,49,62,46,38,98,67,33,29.78,29.42,6,2,0,0.20
2013-4-13,78,59,41,48,41,36,92,58,22,29.91,29.77,5,1,0,0.00
2013-4-14,64,54,44,56,48,41,98,80,54,29.86,29.73,3,1,0,0.06
2013-4-15,81,65,55,62,58,54,98,79,48,29.90,29.75,6,2,0,0.01
2013-4-16,81,70,62,67,62,58,92,78,61,30.05,29.91,5,1,0,0.00
2013-4-17,87,69,61,70,64,60,98,87,54,30.02,29.87,5,1,0,0.43
2013-4-18,82,71,58,66,61,57,98,74,47,29.87,29.61,8,2,0,0.02
2013-4-19,74,59,43,66,51,34,98,75,54,29.95,29.48,8,3,0,1.74
2013-4-20,66,50,33,41,34,27,93,60,23,30.10,29.96,5,1,0,0.00
2013-4-21,71,55,39,46,39,34,86,58,29,30.22,30.05,4,1,0,0.00
2013-4-22,77,58,41,50,44,38,93,65,30,30.17,29.92,5,1,0,0.00
2013-4-23,77,62,46,54,48,41,92,63,38,30.06,29.83,5,1,0,0.00
2013-4-24,70,60,47,62,53,40,93,79,67,30.05,29.83,6,2,0,0.06
2013-4-25,72,54,39,44,38,25,89,61,18,30.19,30.04,4,1,0,0.00
2013-4-26,73,56,40,53,42,36,98,63,31,30.24,30.08,5,1,0,0.12
2013-4-27,58,54,52,56,53,52,98,98,92,30.21,29.94,3,0,0,1.50
2013-4-28,61,58,53,60,57,52,98,98,98,29.95,29.75,5,1,0,2.36
2013-4-29,76,64,56,62,58,54,98,81,50,29.87,29.72,5,1,0,0.00
2013-4-30,81,65,50,64,56,49,98,77,40,29.90,29.78,4,1,0,0.00
2013-5-1,77,66,54,63,59,54,98,78,56,30.00,29.88,5,1,0,0.00
2013-5-2,76,66,53,64,58,52,98,77,61,30.01,29.91,6,1,0,0.00
2013-5-3,73,64,56,62,57,55,98,81,54,29.92,29.74,7,1,0,0.00
2013-5-4,65,58,56,64,56,54,98,95,73,29.76,29.69,3,0,0,4.03
2013-5-5,65,54,49,56,52,49,98,92,66,29.71,29.58,9,1,0,2.32
2013-5-6,58,52,46,53,50,45,98,94,79,29.74,29.61,5,1,0,0.48
2013-5-7,74,60,45,58,52,44,98,78,45,29.81,29.71,4,1,0,0.00
2013-5-8,55,54,53,53,52,51,98,94,92,29.80,29.79,0,0,0,0.00
2013-5-9,82,76,63,64,60,58,88,60,45,29.92,29.82,6,1,0,0.00
2013-5-10,74,66,56,64,60,56,98,80,63,29.88,29.74,4,1,0,0.00
2013-5-11,76,68,57,67,61,51,95,79,57,29.82,29.70,5,1,0,0.02
2013-5-12,71,59,47,52,41,33,91,55,27,29.98,29.82,8,2,0,0.00
2013-5-13,73,56,38,45,38,32,91,57,23,30.10,29.95,5,1,0,0.00
2013-5-14,84,64,42,59,50,40,98,65,38,30.08,29.87,7,2,0,0.00
2013-5-15,90,72,58,64,58,54,92,64,35,29.98,29.82,5,1,0,0.00
2013-5-16,85,71,59,67,61,56,98,73,48,29.89,29.78,4,1,0,0.00
2013-5-17,80,70,60,68,64,58,98,82,61,29.91,29.82,3,0,0,0.18
2013-5-18,77,70,65,72,68,64,98,93,82,29.88,29.80,3,1,0,0.96
2013-5-19,73,67,60,72,67,59,98,98,92,29.93,29.77,6,1,0,2.38
2013-5-20,86,68,59,71,64,58,98,90,58,29.94,29.81,2,0,0,0.00
2013-5-21,89,74,63,75,68,62,98,83,57,29.86,29.72,5,1,0,0.00
2013-5-22,86,71,65,73,68,64,98,89,60,29.78,29.66,4,1,0,1.94
2013-5-23,84,72,62,71,63,57,98,77,43,29.84,29.72,6,1,0,0.00
2013-5-24,75,68,54,55,50,45,78,55,39,30.08,29.99,8,2,0,0.00
2013-5-25,76,58,48,55,50,46,98,76,39,30.17,30.08,4,1,0,0.00
2013-5-26,82,74,61,62,58,53,88,59,39,30.06,29.96,2,0,0,0.00
2013-5-27,86,71,55,65,61,54,98,74,46,30.05,29.90,4,1,0,0.00
2013-5-28,87,74,62,68,64,61,98,73,44,30.00,29.90,4,1,0,0.00
2013-5-29,87,75,62,71,64,60,98,72,46,30.04,29.92,5,1,0,0.00
2013-5-30,84,74,65,71,67,63,98,78,58,30.04,29.90,4,1,0,0.00
2013-5-31,86,76,66,70,67,64,98,77,58,29.99,29.84,4,1,0,0.00
2013-6-1,86,76,71,75,70,66,98,82,62,29.88,29.75,4,1,0,0.66
2013-6-2,82,75,69,76,71,68,98,90,66,29.79,29.68,3,0,0,1.20
2013-6-3,85,73,64,71,65,61,98,79,50,29.80,29.71,3,0,0,0.00
2013-6-4,86,72,59,68,63,58,98,76,47,29.86,29.78,3,0,0,0.00
2013-6-5,82,70,63,74,67,63,98,93,71,29.85,29.73,5,0,0,1.12
2013-6-6,79,70,66,73,68,65,98,96,79,29.74,29.55,1,0,0,0.00
2013-6-7,85,74,68,73,70,67,98,89,68,29.68,29.54,2,0,0,0.09
2013-6-8,84,74,65,71,68,64,98,84,58,29.88,29.67,4,1,0,0.01
2013-6-9,85,72,66,76,70,65,98,93,72,29.91,29.77,3,0,0,0.72
2013-6-10,87,75,69,72,69,66,98,85,53,29.80,29.70,5,1,0,0.41
2013-6-11,93,79,69,77,72,68,98,82,49,29.86,29.78,4,0,0,0.04
2013-6-12,94,80,70,80,75,70,98,84,57,29.90,29.77,3,0,0,0.00
2013-6-13,92,80,73,78,73,66,98,79,62,29.78,29.57,7,2,0,0.04
2013-6-14,85,74,61,68,63,58,93,70,45,29.85,29.70,4,1,0,0.00
2013-6-15,88,74,61,70,65,59,98,75,49,29.95,29.84,3,0,0,0.00
2013-6-16,88,74,65,73,69,64,98,84,53,29.95,29.82,7,0,0,0.38
2013-6-17,84,74,69,75,71,68,98,92,68,29.87,29.73,5,0,0,0.41
2013-6-18,82,73,68,76,70,67,98,92,74,29.77,29.68,4,1,0,1.32
2013-6-19,89,75,63,74,68,62,98,82,49,29.90,29.76,3,0,0,0.00
2013-6-20,86,73,65,74,68,64,98,86,60,30.03,29.89,5,0,0,0.00
2013-6-21,86,75,67,72,69,66,98,84,54,30.09,29.97,2,0,0,0.00
2013-6-22,86,73,67,73,68,66,98,87,56,30.06,29.97,3,0,0,0.00
2013-6-23,89,77,65,76,70,64,98,81,55,30.02,29.90,3,0,0,0.00
2013-6-24,89,78,68,75,72,68,98,82,56,30.05,29.88,3,1,0,0.00
2013-6-25,88,78,72,76,73,70,98,88,66,29.96,29.81,3,0,0,0.04
2013-6-26,90,81,70,77,73,70,98,80,56,29.86,29.68,4,1,0,0.00
2013-6-27,89,80,74,78,74,70,98,81,69,29.74,29.60,5,1,0,0.45
2013-6-28,92,78,70,78,73,69,98,87,58,29.64,29.46,4,1,0,0.17
2013-6-29,89,78,69,76,68,62,98,75,44,29.52,29.44,5,1,0,0.00
2013-6-30,90,76,64,70,66,58,98,73,37,29.62,29.48,5,1,0,0.81
2013-7-1,81,72,64,73,68,63,98,90,72,29.70,29.58,3,0,0,1.03
2013-7-2,86,73,67,74,70,66,98,90,64,29.84,29.70,5,0,0,0.28
2013-7-3,75,71,68,74,70,67,98,96,87,29.96,29.85,4,0,0,0.21
2013-7-4,76,71,68,75,70,67,98,96,88,29.96,29.86,3,0,0,2.23
2013-7-5,76,72,69,74,71,69,98,97,88,29.99,29.90,3,1,0,0.30
2013-7-6,72,71,69,72,70,68,98,98,98,29.96,29.91,2,0,0,3.70
2013-7-7,80,73,69,77,72,68,98,97,84,29.99,29.90,3,0,0,1.98
2013-7-8,87,76,70,78,73,69,98,91,67,30.02,29.92,2,0,0,0.08
2013-7-9,88,79,73,79,75,72,98,90,73,30.00,29.87,3,0,0,0.01
2013-7-10,90,78,70,80,74,69,98,89,69,29.91,29.76,5,0,0,1.58
2013-7-11,87,76,70,76,73,69,98,90,67,29.82,29.68,3,0,0,0.24
2013-7-12,86,76,68,74,70,64,98,83,59,29.80,29.71,5,1,0,0.00
2013-7-13,86,74,63,76,69,62,98,84,63,29.90,29.77,4,0,0,0.08
2013-7-14,86,76,70,77,73,70,98,90,70,30.02,29.87,5,0,0,0.27
2013-7-15,89,77,69,77,73,68,98,87,60,30.13,30.02,5,0,0,0.09
2013-7-16,86,74,70,78,72,69,98,95,70,30.15,30.10,1,0,0,0.02
2013-7-17,74,72,71,73,70,69,98,94,89,30.06,30.02,4,1,0,0.10
2013-7-18,90,80,71,77,74,70,98,82,52,30.06,29.88,2,0,0,0.02
2013-7-19,93,82,73,78,74,71,98,80,52,29.95,29.77,4,0,0,0.50
2013-7-20,91,80,71,79,74,70,98,83,53,29.85,29.71,3,0,0,0.00
2013-7-21,88,78,71,77,74,69,98,89,64,29.84,29.74,3,1,0,1.78
2013-7-22,86,77,71,76,72,70,98,87,63,29.82,29.68,4,1,0,0.00
2013-7-23,83,77,71,77,73,69,98,89,76,29.76,29.62,4,1,0,0.19
2013-7-24,86,76,70,76,72,67,98,89,67,29.70,29.63,4,0,0,0.33
2013-7-25,88,76,64,74,68,63,98,81,55,29.87,29.70,3,0,0,0.00
2013-7-26,89,74,63,75,68,62,98,82,53,29.90,29.79,4,0,0,0.00
2013-7-27,84,73,69,74,70,68,98,91,65,29.82,29.73,0,0,0,0.00
2013-7-28,84,75,67,72,68,63,98,82,60,29.90,29.74,0,0,0,0.00
2013-7-29,82,70,60,67,62,58,98,79,55,30.02,29.89,0,0,0,0.00
2013-7-30,85,74,63,72,67,63,98,82,59,30.06,29.92,2,0,0,0.00
2013-7-31,79,73,69,74,71,67,98,94,83,29.96,29.78,3,0,0,1.00
2013-8-1,88,77,70,76,72,68,98,85,55,29.83,29.75,4,0,0,0.10
2013-8-2,88,75,65,73,68,62,98,80,44,29.88,29.79,3,0,0,0.00
2013-8-3,86,76,67,75,71,66,98,87,68,29.89,29.83,3,0,0,0.00
2013-8-4,89,78,69,76,71,64,98,80,53,29.92,29.84,0,0,0,0.00
2013-8-5,88,74,62,72,65,60,98,77,46,29.92,29.79,2,0,0,0.00
2013-8-6,84,77,70,76,72,69,98,86,71,29.84,29.78,0,0,0,0.00
2013-8-7,85,76,72,78,73,71,98,94,74,29.86,29.76,3,0,0,0.06
2013-8-8,88,77,73,81,74,72,98,93,71,29.88,29.80,3,1,0,0.22
2013-8-9,91,79,72,80,75,71,98,90,62,29.91,29.81,3,0,0,0.04
2013-8-10,89,78,73,81,76,73,98,94,71,29.96,29.88,4,0,0,0.58
2013-8-11,87,80,74,80,76,74,98,90,72,29.99,29.89,4,0,0,0.25
2013-8-12,87,77,71,79,74,71,98,92,78,29.95,29.80,4,0,0,0.51
2013-8-13,87,77,72,77,73,71,98,87,61,29.83,29.72,3,1,0,0.48
2013-8-14,83,73,65,73,67,60,98,81,56,29.87,29.76,4,1,0,0.00
2013-8-15,81,70,63,71,63,59,87,78,64,29.90,29.84,4,1,0,0.00
2013-8-16,77,70,65,69,65,62,98,85,73,29.93,29.86,3,0,0,0.00
2013-8-17,78,70,67,70,67,65,98,91,72,29.96,29.90,2,0,0,0.44
2013-8-18,76,71,67,74,69,66,98,96,81,30.01,29.91,2,0,0,0.72
2013-8-19,82,73,69,73,71,68,98,94,72,29.98,29.88,0,0,0,0.46
2013-8-20,86,76,69,76,73,68,98,90,72,30.01,29.91,2,0,0,0.01
2013-8-21,81,74,71,76,73,70,98,96,81,30.05,29.95,3,0,0,1.10
2013-8-22,87,76,71,77,74,70,98,92,69,30.00,29.87,7,0,0,0.32
2013-8-23,89,77,69,77,72,69,98,87,58,29.93,29.82,4,0,0,0.03
2013-8-24,88,76,67,75,71,66,98,86,60,30.07,29.89,3,0,0,0.00
2013-8-25,86,76,66,72,68,66,98,81,52,30.20,30.07,3,0,0,0.00
2013-8-26,86,74,63,71,67,63,98,81,53,30.15,29.98,2,0,0,0.00
2013-8-27,88,75,65,74,69,64,98,84,54,30.01,29.87,3,0,0,0.00
2013-8-28,91,78,68,77,73,67,98,85,55,29.91,29.82,3,0,0,0.00
2013-8-29,93,80,70,78,74,69,98,83,58,29.87,29.77,3,0,0,0.00
2013-8-30,88,78,72,80,75,71,98,91,73,29.84,29.73,3,0,0,0.00
2013-8-31,90,80,74,80,76,73,98,88,64,29.79,29.66,3,0,0,0.00
2013-9-1,87,76,72,79,74,71,98,95,76,29.74,29.67,4,0,0,0.63
2013-9-2,86,77,71,78,74,71,98,90,69,29.78,29.66,4,0,0,0.00
2013-9-3,90,78,70,77,72,68,98,83,49,29.84,29.70,3,1,0,0.00
2013-9-4,87,74,63,75,68,62,98,85,53,29.95,29.83,3,0,0,0.00
2013-9-5,85,72,61,74,67,61,98,86,54,29.99,29.92,3,0,0,0.02
2013-9-6,89,73,62,75,68,62,98,86,48,30.00,29.89,3,1,0,0.00
2013-9-7,89,75,63,76,69,62,98,85,57,29.95,29.83,4,0,0,0.00
2013-9-8,95,75,66,78,71,65,98,90,50,29.85,29.76,2,0,0,0.00
2013-9-9,98,80,71,78,73,70,98,83,45,29.93,29.81,3,0,0,0.00
2013-9-10,97,81,70,80,72,68,98,80,41,30.05,29.93,3,0,0,0.00
2013-9-11,96,80,68,79,71,68,98,79,41,30.05,29.91,3,0,0,0.00
2013-9-12,96,80,69,79,71,68,98,78,45,29.92,29.72,4,1,0,0.00
2013-9-13,90,75,62,73,63,53,98,71,34,29.80,29.71,5,1,0,0.00
2013-9-14,87,68,55,65,57,51,98,72,36,29.90,29.79,5,1,0,0.00
2013-9-15,88,70,56,74,64,56,98,83,49,30.00,29.90,4,0,0,0.00
2013-9-16,90,72,60,71,64,59,98,78,40,30.00,29.92,4,0,0,0.00
2013-9-17,89,75,66,71,68,64,98,80,48,30.03,29.94,5,1,0,0.00
2013-9-18,87,74,67,70,65,61,98,77,47,30.05,29.93,4,1,0,0.00
2013-9-19,91,74,61,75,66,61,98,80,46,30.02,29.85,3,1,0,0.00
2013-9-20,93,76,63,77,68,62,98,80,40,29.88,29.68,3,1,0,0.00
2013-9-21,75,69,59,75,68,58,98,98,98,29.69,29.56,4,0,0,2.54
2013-9-22,82,66,53,65,58,52,98,80,43,29.74,29.64,5,1,0,0.00
2013-9-23,88,69,56,72,62,56,98,82,42,29.83,29.73,4,1,0,0.00
2013-9-24,77,67,59,70,64,59,98,92,69,29.86,29.70,3,0,0,0.00
2013-9-25,71,68,66,70,67,65,98,98,98,29.70,29.64,3,0,0,0.47
2013-9-26,86,71,62,76,68,62,98,90,48,29.84,29.69,3,0,0,0.01
2013-9-27,86,69,57,75,62,57,98,83,42,29.98,29.84,3,0,0,0.00
2013-9-28,86,69,58,69,62,58,98,82,45,30.04,29.89,4,1,0,0.00
2013-9-29,83,68,58,72,62,58,98,85,45,29.97,29.82,4,1,0,0.00
2013-9-30,83,67,56,72,61,56,98,85,46,29.92,29.81,6,1,0,0.00
2013-10-1,85,68,58,69,63,57,98,86,51,29.99,29.87,5,0,0,0.00
2013-10-2,89,72,62,79,67,61,98,87,48,30.00,29.88,3,0,0,0.00
2013-10-3,89,75,64,76,68,64,98,83,49,29.96,29.87,6,1,0,0.00
2013-10-4,85,67,60,76,65,60,98,95,60,30.00,29.90,2,0,0,0.00
2013-10-5,91,69,62,78,67,61,98,95,51,29.95,29.80,3,0,0,0.00
2013-10-6,85,72,61,76,68,58,98,89,62,29.82,29.63,6,1,0,0.03
2013-10-7,77,62,56,63,56,52,98,84,44,29.87,29.72,4,1,0,0.02
2013-10-8,81,64,54,67,57,53,98,83,46,29.96,29.86,6,2,0,0.00
2013-10-9,84,66,54,74,61,53,98,88,50,30.03,29.91,4,1,0,0.00
2013-10-10,85,67,55,70,60,54,98,83,45,29.99,29.84,4,0,0,0.00
2013-10-11,87,65,50,68,57,49,98,81,39,29.93,29.79,4,0,0,0.00
2013-10-12,86,64,52,69,58,52,98,85,45,29.93,29.83,3,0,0,0.00
2013-10-13,86,64,52,70,58,52,98,87,45,30.05,29.92,4,1,0,0.00
2013-10-14,86,69,57,69,63,56,98,84,47,30.04,29.90,3,0,0,0.00
2013-10-15,75,68,63,75,67,62,98,96,87,29.97,29.86,5,1,0,0.00
2013-10-16,76,66,62,69,64,61,98,92,67,29.88,29.75,3,1,0,0.03
2013-10-17,77,65,52,74,64,51,98,96,76,29.82,29.68,5,1,0,0.28
2013-10-18,72,57,47,62,52,47,98,86,51,29.91,29.78,4,0,0,0.00
2013-10-19,70,57,46,67,56,46,98,96,79,29.87,29.73,5,1,0,0.00
2013-10-20,70,51,39,54,44,38,98,82,39,29.96,29.85,4,1,0,0.00
2013-10-21,73,54,39,64,48,39,98,84,44,29.98,29.81,5,0,0,0.00
2013-10-22,72,60,50,65,56,49,98,90,56,29.84,29.68,2,0,0,0.00
2013-10-23,61,50,37,51,43,36,98,81,41,29.95,29.67,8,1,0,0.00
2013-10-24,63,49,37,53,43,36,98,84,53,30.12,29.93,5,1,0,0.00
2013-10-25,58,42,30,42,34,30,98,76,37,30.30,30.12,5,1,0,0.00
2013-10-26,62,46,29,50,35,28,98,73,41,30.17,29.95,5,1,0,0.00
2013-10-27,68,57,48,64,54,45,98,91,57,29.99,29.91,4,1,0,0.00
2013-10-28,64,57,48,64,56,48,98,98,98,30.10,29.95,4,0,0,0.00
2013-10-29,75,62,55,66,58,54,98,90,60,30.17,30.04,3,0,0,0.00
2013-10-30,81,65,56,71,59,56,98,85,52,30.11,29.94,3,0,0,0.00
2013-10-31,72,65,59,72,65,58,98,98,98,29.95,29.53,7,2,0,0.04
2013-11-1,79,65,49,68,58,48,98,82,38,29.65,29.50,8,1,0,0.84
2013-11-2,70,54,43,60,46,39,98,80,38,29.94,29.65,4,1,0,0.00
2013-11-3,64,50,40,54,44,39,98,83,44,30.13,29.92,5,1,0,0.00
2013-11-4,69,52,36,53,42,36,98,73,40,30.27,30.13,6,1,0,0.00
2013-11-5,70,55,44,52,46,42,98,76,39,30.27,30.13,3,0,0,0.00
2013-11-6,75,61,49,70,58,46,98,91,63,30.14,29.88,5,1,0,0.03
2013-11-7,63,53,37,62,47,34,98,83,40,30.10,29.85,8,2,0,0.52
2013-11-8,62,48,36,42,33,24,98,65,24,30.22,30.09,6,1,0,0.00
2013-11-9,60,46,31,55,38,30,98,78,46,30.17,30.06,5,1,0,0.00
2013-11-10,75,54,40,57,42,33,98,71,21,30.18,30.04,5,1,0,0.00
2013-11-11,70,51,34,48,36,30,98,63,22,30.16,29.95,4,1,0,0.00
2013-11-12,54,44,31,51,34,16,98,70,38,30.36,29.97,10,3,0,0.00
2013-11-13,52,36,26,27,21,18,98,59,28,30.48,30.27,5,2,0,0.00
2013-11-14,63,39,23,36,26,19,98,70,20,30.33,30.08,5,1,0,0.00
2013-11-15,48,41,31,48,41,31,98,98,98,30.10,29.97,3,0,0,0.44
2013-11-16,59,50,44,58,50,44,98,98,98,30.05,29.94,4,0,0,0.01
2013-11-17,66,62,59,66,61,58,98,98,98,29.94,29.69,4,1,0,1.76
2013-11-18,50,48,45,39,37,35,71,66,60,29.98,29.95,4,2,0,0.00
2013-11-19,60,48,40,36,32,28,73,56,32,30.07,29.95,9,2,0,0.00
2013-11-20,65,48,32,41,36,31,98,67,32,30.14,30.00,6,1,0,0.00
2013-11-21,67,56,49,59,48,38,98,77,60,30.18,30.08,5,1,0,0.03
2013-11-22,60,56,53,59,56,53,98,98,98,30.14,30.02,6,1,0,0.19
2013-11-23,56,48,34,53,41,20,98,80,48,30.20,30.03,8,3,0,0.00
2013-11-24,43,32,24,23,15,9,72,51,26,30.40,30.21,10,3,0,0.00
2013-11-25,43,35,27,37,22,12,98,60,37,30.30,30.03,4,0,0,0.37
2013-11-26,44,38,33,43,38,33,98,98,98,30.02,29.57,5,1,0,2.70
2013-11-27,40,33,24,39,27,18,98,82,54,30.12,29.64,9,4,0,0.01
2013-11-28,48,32,18,32,24,18,98,78,40,30.29,30.11,5,1,0,0.00
2013-11-29,57,37,24,40,29,23,98,77,35,30.40,30.28,6,1,0,0.00
2013-11-30,59,40,28,45,31,27,98,73,34,30.36,30.14,5,1,0,0.00
2013-12-1,58,45,30,48,38,29,98,77,49,30.15,29.82,5,1,0,0.00
2013-12-2,50,48,45,49,47,44,98,98,90,29.82,29.63,4,0,0,0.08
2013-12-3,53,51,48,53,50,48,98,98,98,29.70,29.63,2,0,0,0.04
2013-12-4,72,60,52,72,60,52,98,98,98,29.79,29.68,6,1,0,0.00
2013-12-5,75,68,63,75,67,62,98,98,98,29.84,29.72,4,1,0,0.02
2013-12-6,67,52,39,67,52,39,98,98,98,30.04,29.69,5,1,0,1.99
2013-12-7,44,39,36,43,39,36,98,98,98,30.25,30.03,7,2,0,0.01
2013-12-8,48,42,36,47,41,36,98,98,98,30.17,29.91,6,1,0,1.09
2013-12-9,58,48,40,57,47,40,98,98,98,29.99,29.87,6,2,0,0.63
2013-12-10,47,38,26,41,34,26,98,89,54,30.22,29.83,5,2,0,0.48
2013-12-11,52,36,23,40,29,22,98,78,46,30.31,30.18,4,1,0,0.01
2013-12-12,48,34,24,33,25,18,98,75,30,30.38,30.23,5,2,0,0.00
2013-12-13,48,36,21,31,27,21,98,73,46,30.25,29.97,4,1,0,0.00
2013-12-14,47,42,38,47,41,30,98,95,70,30.01,29.59,5,1,0,0.96
2013-12-15,43,36,29,43,36,29,98,98,98,30.07,29.72,10,2,0,0.00
2013-12-16,55,39,28,46,35,28,98,86,52,30.10,29.96,5,2,0,0.00
2013-12-17,63,47,34,47,37,30,98,72,44,30.10,29.87,7,2,0,0.00
2013-12-18,54,38,26,37,29,23,98,75,32,30.21,30.08,5,2,0,0.00
2013-12-19,63,43,26,43,31,26,98,71,29,30.14,29.96,4,1,0,0.00
2013-12-20,65,53,40,58,44,32,98,75,47,30.00,29.87,5,1,0,0.00
2013-12-21,68,61,56,68,60,56,98,98,98,29.86,29.61,7,2,0,0.25
2013-12-22,69,59,55,68,58,55,98,98,98,29.89,29.60,9,2,0,1.91
2013-12-23,55,43,29,55,43,28,98,98,98,30.17,29.88,8,2,0,0.02
2013-12-24,44,31,25,31,24,16,98,76,36,30.33,30.18,5,2,0,0.00
2013-12-25,50,33,21,34,26,20,98,79,41,30.32,30.16,5,1,0,0.00
2013-12-26,54,38,26,43,31,25,98,80,45,30.24,30.10,5,1,0,0.00
2013-12-27,57,38,25,39,27,14,98,73,18,30.30,30.17,5,1,0,0.00
2013-12-28,43,35,27,42,35,27,98,98,98,30.23,29.80,5,1,0,1.01
2013-12-29,51,44,39,51,43,38,98,98,98,29.87,29.71,3,1,0,0.56
2013-12-30,44,40,37,43,39,37,98,98,95,30.06,29.86,6,1,0,0.00
2013-12-31,37,30,28,36,30,27,98,98,98,30.20,30.05,3,0,0,0.00
2014-1-1,53,36,25,44,33,24,98,90,49,30.18,29.91,8,1,0,0.00
2014-1-2,47,38,22,46,37,22,98,98,98,30.05,29.62,11,3,0,0.34